[[[{"header":{"parameterUnit":"kt","parameterCategory":2,"dx":1,"dy":1,"la1":30.253999710083008,"la2":30.299108505249023,"lo1":-89.0895004272461,"lo2":-89.04439544677734,"nx":28,"ny":28,"refTime":"2022-10-06T21:00:00:Z","depth":0,"parameterNumber":1,"parameterNumberName":"U-component_of_WINDS"},"data":[-1.0921,-1.092,-1.0916,-1.0912,-1.0908,-1.0905,-1.0902,-1.0898,-1.0894,-1.0889,-1.0885,-1.088,-1.0874,-1.0868,-1.0863,-1.0861,-1.0859,-1.0861,-1.0858,-1.0853,-1.0852,-1.0851,-1.0851,-1.0861,-1.0861,-1.0864,-1.0864,-1.0864,-1.0917,-1.0913,-1.091,-1.0905,-1.0902,-1.0897,-1.0893,-1.089,-1.0887,-1.0882,-1.0878,-1.0873,-1.0868,-1.0861,-1.0856,-1.0854,-1.0851,-1.0853,-1.0853,-1.0851,-1.0846,-1.0846,-1.0855,-1.0855,-1.0855,-1.0855,-1.0855,-1.0855,-1.0907,-1.0907,-1.0901,-1.0898,-1.0895,-1.0891,-1.0889,-1.0884,-1.0881,-1.0876,-1.0871,-1.0868,-1.0861,-1.0853,-1.0849,-1.0845,-1.0843,-1.0843,-1.0843,-1.0843,-1.0843,-1.0838,-1.0844,-1.0844,-1.0844,-1.0844,-1.0844,0,-1.0899,-1.0896,-1.0893,-1.0889,-1.0887,-1.0883,-1.0879,-1.0878,-1.087,-1.0868,-1.0864,-1.0861,-1.0855,-1.085,-1.0844,-1.084,-1.0834,-1.0834,-1.0834,-1.0835,-1.0838,-1.0836,-1.0827,-1.0833,-1.0833,-1.0833,-1.0833,-1.0833,-1.0889,-1.0889,-1.0882,-1.088,-1.0877,-1.0875,-1.0873,-1.0866,-1.0864,-1.0857,-1.0857,-1.0853,-1.0849,-1.0842,-1.0836,-1.0831,-1.0828,-1.0831,-1.0828,-1.0829,-1.0828,-1.0828,-1.0827,-1.0832,-1.0832,-1.0832,-1.0832,0,-1.0883,-1.0877,-1.0876,-1.087,-1.0868,-1.0868,-1.0862,-1.0861,-1.0856,-1.0854,-1.0853,-1.0845,-1.0841,-1.0834,-1.0828,-1.0824,-1.0823,-1.0821,-1.0825,-1.0824,-1.0825,-1.0825,-1.0833,-1.0833,-1.0824,-1.0824,-1.0824,0,-1.0872,-1.0872,-1.0864,-1.0864,-1.0863,-1.0857,-1.0857,-1.0853,-1.0848,-1.0846,-1.084,-1.0838,-1.083,-1.0827,-1.0821,-1.0819,-1.0818,-1.0815,-1.0814,-1.0815,-1.0816,-1.0814,-1.0813,-1.0811,-1.0811,-1.0811,-1.0811,0,-1.0863,-1.086,-1.0859,-1.0858,-1.0851,-1.085,-1.0847,-1.0842,-1.084,-1.0836,-1.0834,-1.083,-1.0828,-1.0824,-1.0818,-1.0815,-1.0815,-1.081,-1.0812,-1.0812,-1.0812,-1.0812,-1.082,-1.0811,-1.0811,-1.0811,-1.0811,0,-1.0853,-1.0851,-1.0851,-1.0845,-1.0844,-1.0844,-1.084,-1.0838,-1.0833,-1.083,-1.0827,-1.0822,-1.082,-1.0816,-1.0813,-1.0811,-1.0809,-1.0806,-1.0806,-1.0806,-1.0801,-1.0806,-1.0815,-1.0816,-1.0805,-1.0805,-1.0805,0,-1.0845,-1.0845,-1.0839,-1.084,-1.0839,-1.0832,-1.0831,-1.0827,-1.0823,-1.0821,-1.0816,-1.0814,-1.081,-1.0808,-1.0807,-1.0802,-1.0804,-1.0802,-1.0798,-1.0798,-1.0799,-1.0807,-1.081,-1.0814,-1.0804,-1.0804,-1.0804,0,-1.0838,-1.083,-1.0831,-1.0828,-1.0823,-1.0822,-1.0822,-1.0818,-1.0817,-1.0814,-1.0813,-1.081,-1.0806,-1.0804,-1.0799,-1.0799,-1.0803,-1.0795,-1.0795,-1.0796,-1.0803,-1.0806,-1.0807,-1.0799,-1.08,-1.08,-1.0803,0,-1.0823,-1.0822,-1.0824,-1.082,-1.0818,-1.0819,-1.0813,-1.0812,-1.0808,-1.0804,-1.0803,-1.0798,-1.0795,-1.0794,-1.079,-1.0792,-1.0791,-1.0787,-1.0782,-1.0788,-1.0789,-1.079,-1.0781,-1.0781,-1.0781,-1.0781,0,0,-1.0815,-1.0815,-1.081,-1.081,-1.0808,-1.0801,-1.0802,-1.08,-1.0795,-1.0794,-1.0792,-1.0787,-1.0783,-1.0782,-1.0784,-1.0783,-1.0782,-1.0781,-1.0786,-1.0786,-1.0787,-1.0788,-1.0788,-1.0781,-1.0781,-1.0781,-1.0781,0,-1.0809,-1.0807,-1.0808,-1.0806,-1.0802,-1.0798,-1.0798,-1.0793,-1.0791,-1.079,-1.0784,-1.0783,-1.078,-1.0777,-1.0775,-1.078,-1.0776,-1.078,-1.0785,-1.0784,-1.0785,-1.0786,-1.0787,-1.0788,-1.078,-1.078,-1.078,0,-1.08,-1.0797,-1.0797,-1.0794,-1.0792,-1.0791,-1.0785,-1.0785,-1.0784,-1.0777,-1.0776,-1.0773,-1.0768,-1.0769,-1.0769,-1.0767,-1.0771,-1.0769,-1.0769,-1.0769,-1.0768,-1.0769,-1.077,-1.0759,-1.0759,-1.0759,0,0,-1.0795,-1.0795,-1.079,-1.0793,-1.0791,-1.0786,-1.0785,-1.0781,-1.0778,-1.0777,-1.0773,-1.0769,-1.0767,-1.0766,-1.0764,-1.0766,-1.0764,-1.0766,-1.0767,-1.0768,-1.0769,-1.0768,-1.0769,-1.0759,-1.0759,-1.0759,0,0,-1.0793,-1.0787,-1.0784,-1.0787,-1.0784,-1.0778,-1.078,-1.0776,-1.0774,-1.0773,-1.0766,-1.0765,-1.0766,-1.0763,-1.0761,-1.0762,-1.0758,-1.0758,-1.0764,-1.0765,-1.0766,-1.0767,-1.0754,0,0,0,0,0,-1.0783,-1.0787,-1.0785,-1.0785,-1.0781,-1.078,-1.0779,-1.0774,-1.0771,-1.0772,-1.0768,-1.0764,-1.076,-1.0759,-1.0758,-1.076,-1.0757,-1.0757,-1.0758,-1.0766,-1.0767,-1.0768,0,0,0,0,0,0,-1.0783,-1.0783,-1.0785,-1.078,-1.0779,-1.078,-1.0773,-1.0772,-1.0771,-1.077,-1.0765,-1.0764,-1.0759,-1.0759,-1.0758,-1.076,-1.0754,-1.0757,-1.0757,-1.0758,-1.0766,-1.0767,-1.0768,0,0,0,0,0,-1.0783,-1.0783,-1.0779,-1.078,-1.0779,-1.0773,-1.0773,-1.0772,-1.0771,-1.0765,-1.0764,-1.0767,-1.0759,-1.0758,-1.0758,-1.076,-1.0754,-1.0754,-1.0757,-1.0758,-1.0758,-1.0767,0,0,0,0,0,0,-1.0783,-1.0781,-1.0778,-1.0778,-1.0778,-1.0773,-1.0772,-1.0772,-1.0766,-1.0765,-1.0767,-1.0766,-1.0759,-1.0759,-1.0758,-1.0761,-1.0755,-1.0754,-1.0754,-1.0757,-1.0758,-1.0758,0,0,0,0,0,0,-1.0782,-1.0781,-1.0778,-1.0776,-1.0776,-1.0773,-1.0772,-1.0771,-1.0766,-1.0768,-1.0768,-1.0767,-1.076,-1.0759,-1.0759,-1.0758,-1.0755,-1.0755,-1.0755,-1.0754,-1.0758,-1.0758,0,0,0,0,0,0,-1.0781,-1.0781,-1.0777,-1.0776,-1.0775,-1.077,-1.0772,-1.0769,-1.0765,-1.0769,-1.0764,-1.0764,-1.076,-1.076,-1.0759,-1.0758,-1.0758,-1.0755,-1.0755,-1.0755,-1.0755,0,0,0,0,0,0,0,-1.0781,-1.0785,-1.0781,-1.0776,-1.0775,-1.0774,-1.0774,-1.0774,-1.0765,-1.0764,-1.0764,-1.0764,-1.0756,-1.0755,-1.0755,-1.0759,0,0,-1.0755,-1.0755,0,0,0,0,0,0,0,0,-1.0785,-1.0785,-1.0781,-1.0781,-1.0781,-1.0774,-1.0774,-1.0774,-1.0765,-1.0764,-1.0764,-1.0764,-1.0755,-1.0755,-1.0755,0,0,0,0,0,0,0,0,0,0,0,0,0,0,0,-1.0781,-1.0781,0,-1.0774,-1.0774,-1.0774,-1.0765,-1.0764,-1.0764,-1.0764,-1.0755,-1.0755,-1.0755,0,0,0,0,0,0,0,0,0,0,0,0,0,0,0,0,0,0,0,0,0,0,0,0,0,0,0,0,0,0,0,0,0,0,0,0,0,0,0,0,0,0,0,0,0,0,0,0,0,0,0,0,0,0,0,0,0,0,0,0,0,0,0,0,0,0,0,0,0]}],[{"header":{"parameterUnit":"kt","parameterCategory":2,"dx":1,"dy":1,"la1":30.253999710083008,"la2":30.299108505249023,"lo1":-89.0895004272461,"lo2":-89.04439544677734,"nx":28,"ny":28,"refTime":"2022-10-06T21:00:00:Z","depth":0,"parameterNumber":2,"parameterNumberName":"V-component_of_WINDS"},"data":[-2.5291,-2.534,-2.5353,-2.5413,-2.5434,-2.5478,-2.5497,-2.5522,-2.5545,-2.5597,-2.5628,-2.5643,-2.5669,-2.5708,-2.5741,-2.5746,-2.5761,-2.577,-2.5775,-2.5723,-2.5717,-2.5711,-2.5702,-2.5772,-2.5773,-2.5828,-2.5829,-2.5829,-2.5256,-2.5278,-2.5313,-2.5356,-2.5386,-2.5385,-2.5417,-2.5443,-2.548,-2.5508,-2.5539,-2.5584,-2.562,-2.5643,-2.5679,-2.5701,-2.5702,-2.571,-2.5709,-2.5714,-2.5658,-2.5648,-2.5709,-2.5709,-2.5709,-2.5709,-2.5709,-2.5709,-2.5195,-2.5223,-2.5256,-2.5294,-2.5318,-2.5346,-2.5374,-2.5393,-2.5426,-2.5467,-2.5472,-2.5514,-2.5543,-2.559,-2.5608,-2.564,-2.5632,-2.5644,-2.5648,-2.5651,-2.5655,-2.5577,-2.5646,-2.5646,-2.5646,-2.5646,-2.5646,0,-2.5155,-2.5163,-2.5197,-2.5235,-2.5263,-2.5293,-2.5321,-2.5339,-2.5357,-2.5383,-2.5422,-2.5446,-2.5492,-2.5528,-2.5563,-2.5579,-2.5579,-2.5579,-2.5588,-2.5588,-2.5584,-2.5589,-2.55,-2.5577,-2.5576,-2.5576,-2.5576,-2.5575,-2.5096,-2.5126,-2.5165,-2.5187,-2.5206,-2.524,-2.5263,-2.5277,-2.5301,-2.5337,-2.5359,-2.5396,-2.5426,-2.5484,-2.5502,-2.5536,-2.5536,-2.5565,-2.5541,-2.554,-2.5539,-2.5538,-2.5542,-2.5569,-2.557,-2.5571,-2.5571,0,-2.5062,-2.5081,-2.5131,-2.5165,-2.5175,-2.5205,-2.5234,-2.5261,-2.5275,-2.5314,-2.5324,-2.5345,-2.5381,-2.5395,-2.5438,-2.5444,-2.5494,-2.5492,-2.5486,-2.5487,-2.5516,-2.5514,-2.5602,-2.5615,-2.554,-2.554,-2.5541,0,-2.502,-2.5058,-2.5084,-2.5112,-2.5155,-2.5168,-2.521,-2.5226,-2.5251,-2.5281,-2.5283,-2.5312,-2.5325,-2.5355,-2.5363,-2.5406,-2.5414,-2.5421,-2.5424,-2.5423,-2.5422,-2.5435,-2.5433,-2.5424,-2.5424,-2.5423,-2.5423,0,-2.4967,-2.5024,-2.5069,-2.5085,-2.5124,-2.5144,-2.5161,-2.5188,-2.521,-2.5239,-2.5253,-2.5285,-2.5303,-2.5328,-2.5339,-2.5323,-2.5391,-2.5371,-2.5399,-2.5399,-2.5414,-2.5414,-2.5488,-2.5422,-2.5422,-2.5422,-2.5422,0,-2.4936,-2.4967,-2.5029,-2.5062,-2.5076,-2.5105,-2.5139,-2.5167,-2.5195,-2.5203,-2.5225,-2.5228,-2.5265,-2.5245,-2.5296,-2.5272,-2.529,-2.53,-2.5302,-2.5307,-2.5284,-2.5327,-2.5394,-2.5403,-2.5311,-2.531,-2.5309,0,-2.4871,-2.4938,-2.495,-2.5007,-2.504,-2.5042,-2.5073,-2.5098,-2.5111,-2.514,-2.5154,-2.5185,-2.5173,-2.5185,-2.5208,-2.5223,-2.5254,-2.5219,-2.5261,-2.5262,-2.5256,-2.5318,-2.5326,-2.5378,-2.5298,-2.5299,-2.53,0,-2.4823,-2.4871,-2.488,-2.4899,-2.4934,-2.496,-2.4996,-2.5031,-2.505,-2.5076,-2.5107,-2.5149,-2.5143,-2.5161,-2.5166,-2.519,-2.5234,-2.5179,-2.5179,-2.519,-2.5292,-2.53,-2.5308,-2.5232,-2.5233,-2.5234,-2.529,0,-2.4777,-2.4811,-2.4836,-2.4876,-2.4898,-2.4934,-2.495,-2.4971,-2.4975,-2.4988,-2.5031,-2.5052,-2.5086,-2.5098,-2.51,-2.515,-2.5144,-2.5135,-2.5117,-2.5156,-2.5175,-2.5183,-2.5087,-2.5087,-2.5086,-2.5086,0,0,-2.4711,-2.4761,-2.4772,-2.4807,-2.4827,-2.4828,-2.4865,-2.4883,-2.492,-2.4934,-2.4924,-2.4988,-2.5005,-2.5056,-2.5069,-2.5081,-2.5092,-2.5077,-2.5137,-2.5142,-2.5148,-2.5168,-2.5175,-2.5085,-2.5085,-2.5085,-2.5085,0,-2.4698,-2.4718,-2.4754,-2.4775,-2.4805,-2.4817,-2.4826,-2.4855,-2.4865,-2.4907,-2.4906,-2.4933,-2.4982,-2.5002,-2.5018,-2.5071,-2.5068,-2.508,-2.5105,-2.5132,-2.5138,-2.5144,-2.5165,-2.5172,-2.5084,-2.5084,-2.5084,0,-2.4655,-2.4678,-2.4697,-2.4741,-2.4761,-2.4793,-2.4778,-2.4811,-2.4835,-2.4831,-2.4873,-2.4886,-2.4912,-2.4957,-2.4978,-2.4969,-2.5046,-2.5023,-2.5026,-2.5029,-2.5056,-2.5063,-2.5069,-2.4984,-2.4984,-2.4983,0,0,-2.4641,-2.4673,-2.4701,-2.4739,-2.4752,-2.477,-2.4787,-2.4793,-2.4817,-2.4827,-2.4844,-2.4867,-2.4896,-2.4915,-2.4942,-2.4989,-2.4996,-2.501,-2.5015,-2.5019,-2.5023,-2.5052,-2.5059,-2.4982,-2.4982,-2.4982,0,0,-2.4634,-2.4669,-2.4669,-2.4716,-2.474,-2.4769,-2.4791,-2.4791,-2.4818,-2.4815,-2.4824,-2.483,-2.4872,-2.4885,-2.4863,-2.4936,-2.4917,-2.4923,-2.4927,-2.4933,-2.4938,-2.4934,-2.485,0,0,0,0,0,-2.4629,-2.4665,-2.4664,-2.4675,-2.4729,-2.4769,-2.4776,-2.4785,-2.4773,-2.4791,-2.4805,-2.48,-2.4876,-2.4857,-2.4866,-2.489,-2.4963,-2.4966,-2.4969,-2.4986,-2.4992,-2.4997,0,0,0,0,0,0,-2.4633,-2.4646,-2.4663,-2.4694,-2.4706,-2.4768,-2.4749,-2.4753,-2.4771,-2.477,-2.4798,-2.4801,-2.4809,-2.4853,-2.4861,-2.4883,-2.4847,-2.4964,-2.4967,-2.4969,-2.4988,-2.4993,-2.4997,0,0,0,0,0,-2.4636,-2.4646,-2.4731,-2.4693,-2.4704,-2.4725,-2.4748,-2.4751,-2.4765,-2.4787,-2.479,-2.477,-2.4809,-2.4816,-2.4858,-2.4879,-2.4842,-2.4845,-2.4966,-2.4968,-2.497,-2.499,0,0,0,0,0,0,-2.4639,-2.4649,-2.4733,-2.4737,-2.468,-2.4722,-2.4728,-2.4749,-2.4781,-2.4784,-2.4759,-2.4758,-2.481,-2.4815,-2.4821,-2.4878,-2.4837,-2.484,-2.4842,-2.4968,-2.4969,-2.4971,0,0,0,0,0,0,-2.4643,-2.4652,-2.4735,-2.4719,-2.472,-2.4718,-2.4725,-2.476,-2.4781,-2.4751,-2.4751,-2.4759,-2.4801,-2.4815,-2.4819,-2.4874,-2.4834,-2.4837,-2.4839,-2.484,-2.4969,-2.497,0,0,0,0,0,0,-2.4647,-2.4654,-2.4718,-2.4719,-2.472,-2.4761,-2.475,-2.4804,-2.4769,-2.475,-2.4765,-2.4764,-2.48,-2.4805,-2.4818,-2.4871,-2.4873,-2.4834,-2.4836,-2.4837,-2.4838,0,0,0,0,0,0,0,-2.465,-2.46,-2.4713,-2.4719,-2.4721,-2.477,-2.4771,-2.4772,-2.4768,-2.4767,-2.4766,-2.4765,-2.4817,-2.482,-2.4824,-2.4868,0,0,-2.4834,-2.4835,0,0,0,0,0,0,0,0,-2.4597,-2.4599,-2.4713,-2.4714,-2.4714,-2.477,-2.4771,-2.4772,-2.4768,-2.4767,-2.4766,-2.4765,-2.4818,-2.4821,-2.4823,0,0,0,0,0,0,0,0,0,0,0,0,0,0,0,-2.4713,-2.4714,0,-2.477,-2.4771,-2.4771,-2.4768,-2.4767,-2.4766,-2.4765,-2.4819,-2.4821,-2.4823,0,0,0,0,0,0,0,0,0,0,0,0,0,0,0,0,0,0,0,0,0,0,0,0,0,0,0,0,0,0,0,0,0,0,0,0,0,0,0,0,0,0,0,0,0,0,0,0,0,0,0,0,0,0,0,0,0,0,0,0,0,0,0,0,0,0,0,0,0]}]]]